User: anonymous
Location: Columbia
(38.9520°N, 92.3340°W)
Time: 03:14:27
(UTC-05:00)
Language:

Cosmos 2100 Rocket - Orbit

View from above orbital plane
View from above orbital plane
View from above satellite
View from above satellite

Ground track
Ground track

The orbit data is extracted from the following two-line orbital elements,

1 20805U 90083B   14232.29235374  .00000107  00000-0  94869-4 0  8078
2 20805 082.9358 106.9991 0031305 038.0633 099.1461 13.75713980201515
Epoch (UTC): 20 August 2014 07:00:59
Eccentricity: 0.0031305
inclination: 82.9358°
perigee height: 956 km
apogee height: 1002 km
right ascension of ascending node: 106.9991°
argument of perigee: 38.0633°
revolutions per day: 13.75713980
mean anomaly at epoch: 99.1461°
orbit number at epoch: 20151

The dashed part of the orbit path shows where the satellite is in the earth's shadow,  

DLR